User: anonymous   Login
Location: Unspecified
(0.0000°N, 0.0000°E)
Time: 08:42:36
(UTC+02:00)
Language:

H-2A R/B - Orbit

View from above orbital plane
View from above orbital plane
View from above satellite
View from above satellite

Ground track
Ground track

The orbit data is extracted from the following two-line orbital elements,

1 26899U 01038B   17087.25780794 +.00003736 +00000-0 +74227-3 0  9995
2 26899 028.0183 097.9089 7133729 134.8087 312.0091 02.47594433134514
Epoch (UTC): 28 March 2017 06:11:14
Eccentricity: 0.7133729
inclination: 28.0183°
perigee height: 237 km
apogee height: 33166 km
right ascension of ascending node: 97.9089°
argument of perigee: 134.8087°
revolutions per day: 2.47594433
mean anomaly at epoch: 312.0091°
orbit number at epoch: 13451

The dashed part of the orbit path shows where the satellite is in the earth's shadow,  

DLR